When you browse on this site, cookies collect data to enhance your experience and personalize the content and advertising you see.
Visit our Privacy Policy to learn more. By continuing to use the site, you agree to this use of cookies and data.
  • In Latvia
  • List of Countries
  • For 7 days
  • Water Temperature
  • Weather Map
  • Weather Widgets
  • user-avatar
    Login

    Hourly Weather Kerns

    Today, 22 November, Friday

    Time Temperature Precipitation Wind Pressure Humidity
    00:00 +21°C° 0 mm 3 mps 759 mmHg 94%
    01:00 +21°C° 0 mm 3 mps 758 mmHg 95%
    02:00 +21°C° 0.1 mm 4 mps 758 mmHg 96%
    03:00 +21°C° 0.1 mm 4 mps 759 mmHg 96%
    04:00 +21°C° 0 mm 3 mps 759 mmHg 96%
    05:00 +22°C° 0.1 mm 3 mps 759 mmHg 92%
    06:00 +23°C° 0.1 mm 4 mps 759 mmHg 87%
    07:00 +25°C° 0.1 mm 4 mps 760 mmHg 83%
    08:00 +27°C° 0 mm 4 mps 760 mmHg 70%
    09:00 +29°C° 0 mm 4 mps 760 mmHg 56%
    10:00 +33°C° 0 mm 4 mps 760 mmHg 43%
    11:00 +33°C° 0 mm 4 mps 759 mmHg 41%
    12:00 +34°C° 0 mm 4 mps 758 mmHg 40%
    13:00 +35°C° 0 mm 4 mps 758 mmHg 38%
    14:00 +35°C° 0 mm 4 mps 758 mmHg 41%
    15:00 +34°C° 0 mm 4 mps 757 mmHg 44%
    16:00 +33°C° 0 mm 4 mps 757 mmHg 47%
    17:00 +30°C° 0 mm 4 mps 757 mmHg 59%
    18:00 +28°C° 0 mm 4 mps 758 mmHg 70%
    19:00 +26°C° 0 mm 3 mps 758 mmHg 82%
    20:00 +25°C° 0.2 mm 3 mps 758 mmHg 87%
    21:00 +25°C° 0.2 mm 3 mps 759 mmHg 92%
    22:00 +24°C° 0.2 mm 3 mps 759 mmHg 97%
    23:00 +24°C° 0.1 mm 3 mps 759 mmHg 96%

    Tomorrow, 23 November, Saturday

    Time Temperature Precipitation Wind Pressure Humidity
    00:00 +24°C° 0.1 mm 3 mps 758 mmHg 96%
    01:00 +23°C° 0.1 mm 2 mps 758 mmHg 96%
    02:00 +23°C° 0 mm 2 mps 758 mmHg 96%
    03:00 +23°C° 0 mm 2 mps 758 mmHg 97%
    04:00 +21°C° 0 mm 3 mps 758 mmHg 97%
    05:00 +23°C° 0 mm 2 mps 759 mmHg 93%
    06:00 +24°C° 0 mm 2 mps 759 mmHg 88%
    07:00 +25°C° 0 mm 2 mps 759 mmHg 84%
    08:00 +28°C° 0 mm 3 mps 759 mmHg 71%
    09:00 +30°C° 0 mm 3 mps 759 mmHg 57%
    10:00 +34°C° 0 mm 4 mps 759 mmHg 44%
    11:00 +34°C° 0 mm 4 mps 759 mmHg 44%
    12:00 +35°C° 0 mm 5 mps 758 mmHg 43%
    13:00 +35°C° 0 mm 5 mps 757 mmHg 43%
    14:00 +34°C° 0 mm 5 mps 757 mmHg 46%
    15:00 +33°C° 0 mm 5 mps 757 mmHg 48%
    16:00 +33°C° 0 mm 5 mps 756 mmHg 51%
    17:00 +29°C° 0 mm 4 mps 757 mmHg 59%
    18:00 +27°C° 0 mm 4 mps 757 mmHg 67%
    19:00 +25°C° 0 mm 3 mps 758 mmHg 75%
    20:00 +24°C° 0 mm 3 mps 758 mmHg 80%
    21:00 +22°C° 0 mm 3 mps 758 mmHg 85%
    22:00 +21°C° 0 mm 3 mps 759 mmHg 90%
    23:00 +21°C° 0 mm 3 mps 758 mmHg 90%

    Day after tomorrow, 24 November, Sunday

    Time Temperature Precipitation Wind Pressure Humidity
    00:00 +21°C° 0 mm 2 mps 758 mmHg 90%
    01:00 +20°C° 0 mm 2 mps 758 mmHg 91%
    02:00 +20°C° 0 mm 2 mps 758 mmHg 92%
    03:00 +20°C° 0 mm 2 mps 758 mmHg 93%
    04:00 +20°C° 0 mm 2 mps 757 mmHg 94%
    05:00 +23°C° 0 mm 2 mps 758 mmHg 87%
    06:00 +24°C° 0 mm 2 mps 758 mmHg 81%
    07:00 +26°C° 0 mm 2 mps 759 mmHg 75%
    08:00 +28°C° 0 mm 3 mps 758 mmHg 64%
    09:00 +31°C° 0 mm 3 mps 758 mmHg 53%
    10:00 +34°C° 0 mm 3 mps 758 mmHg 43%
    11:00 +35°C° 0 mm 4 mps 758 mmHg 40%
    12:00 +35°C° 0 mm 4 mps 757 mmHg 37%
    13:00 +36°C° 0 mm 4 mps 757 mmHg 33%
    14:00 +35°C° 0 mm 4 mps 756 mmHg 35%
    15:00 +35°C° 0 mm 4 mps 756 mmHg 36%
    16:00 +34°C° 0 mm 4 mps 755 mmHg 37%
    17:00 +30°C° 0 mm 4 mps 756 mmHg 49%
    18:00 +28°C° 0 mm 3 mps 756 mmHg 62%
    19:00 +25°C° 0 mm 3 mps 757 mmHg 74%
    20:00 +24°C° 0 mm 3 mps 757 mmHg 81%
    21:00 +22°C° 0 mm 3 mps 758 mmHg 87%
    22:00 +21°C° 0 mm 3 mps 758 mmHg 94%
    23:00 +21°C° 0 mm 2 mps 758 mmHg 95%

    25 November, Monday

    Time Temperature Precipitation Wind Pressure Humidity
    00:00 +21°C° 0 mm 2 mps 757 mmHg 96%
    01:00 +21°C° 0 mm 2 mps 757 mmHg 97%
    02:00 +23°C° 0.1 mm 2 mps 757 mmHg 96%
    03:00 +23°C° 0.1 mm 2 mps 757 mmHg 96%
    04:00 +23°C° 0.1 mm 2 mps 757 mmHg 96%
    05:00 +25°C° 0.2 mm 1 mps 757 mmHg 92%
    06:00 +26°C° 0.2 mm 1 mps 758 mmHg 88%
    07:00 +27°C° 0.2 mm 1 mps 758 mmHg 84%
    08:00 +28°C° 0.3 mm 2 mps 758 mmHg 76%
    09:00 +30°C° 0.3 mm 3 mps 758 mmHg 68%
    10:00 +31°C° 0.3 mm 3 mps 758 mmHg 61%
    11:00 +31°C° 0.5 mm 3 mps 758 mmHg 62%
    12:00 +31°C° 0.5 mm 3 mps 757 mmHg 63%
    13:00 +31°C° 0.5 mm 3 mps 757 mmHg 64%
    14:00 +31°C° 0.2 mm 3 mps 756 mmHg 64%
    15:00 +31°C° 0.2 mm 3 mps 756 mmHg 64%
    16:00 +30°C° 0.2 mm 3 mps 755 mmHg 64%
    17:00 +29°C° 0 mm 3 mps 756 mmHg 71%
    18:00 +27°C° 0 mm 3 mps 756 mmHg 78%
    19:00 +26°C° 0 mm 2 mps 757 mmHg 85%
    20:00 +25°C° 0 mm 2 mps 757 mmHg 87%
    21:00 +25°C° 0 mm 2 mps 757 mmHg 88%
    22:00 +25°C° 0 mm 2 mps 758 mmHg 89%
    23:00 +25°C° 0 mm 2 mps 757 mmHg 90%

    26 November, Tuesday

    Time Temperature Precipitation Wind Pressure Humidity
    00:00 +25°C° 0 mm 2 mps 757 mmHg 90%
    01:00 +24°C° 0 mm 1 mps 757 mmHg 91%
    02:00 +24°C° 0.1 mm 2 mps 757 mmHg 91%
    03:00 +24°C° 0.1 mm 2 mps 757 mmHg 91%
    04:00 +24°C° 0.1 mm 2 mps 757 mmHg 92%
    05:00 +25°C° 0.1 mm 2 mps 757 mmHg 88%
    06:00 +25°C° 0.1 mm 2 mps 758 mmHg 85%
    07:00 +26°C° 0.1 mm 2 mps 758 mmHg 82%
    08:00 +28°C° 0 mm 2 mps 758 mmHg 70%
    09:00 +30°C° 0 mm 3 mps 758 mmHg 59%
    10:00 +34°C° 0 mm 3 mps 758 mmHg 47%
    11:00 +34°C° 0 mm 3 mps 758 mmHg 45%
    12:00 +35°C° 0 mm 3 mps 757 mmHg 43%
    13:00 +36°C° 0 mm 4 mps 757 mmHg 41%
    14:00 +35°C° 0 mm 3 mps 756 mmHg 44%
    15:00 +34°C° 0 mm 3 mps 755 mmHg 47%
    16:00 +33°C° 0 mm 3 mps 755 mmHg 50%
    17:00 +30°C° 0 mm 3 mps 755 mmHg 58%
    18:00 +28°C° 0 mm 2 mps 756 mmHg 66%
    19:00 +26°C° 0 mm 2 mps 756 mmHg 74%
    20:00 +25°C° 0 mm 2 mps 757 mmHg 78%
    21:00 +24°C° 0 mm 1 mps 757 mmHg 82%
    22:00 +23°C° 0 mm 1 mps 757 mmHg 85%
    23:00 +23°C° 0 mm 1 mps 757 mmHg 86%

    27 November, Wednesday

    Time Temperature Precipitation Wind Pressure Humidity
    00:00 +23°C° 0 mm 1 mps 757 mmHg 87%
    01:00 +22°C° 0 mm 1 mps 757 mmHg 88%
    02:00 +22°C° 0 mm 1 mps 756 mmHg 87%
    03:00 +22°C° 0 mm 1 mps 756 mmHg 87%
    04:00 +22°C° 0 mm 1 mps 756 mmHg 87%
    05:00 +23°C° 0 mm 1 mps 757 mmHg 80%
    06:00 +25°C° 0 mm 1 mps 757 mmHg 73%
    07:00 +26°C° 0 mm 1 mps 758 mmHg 66%
    08:00 +28°C° 0 mm 2 mps 758 mmHg 57%
    09:00 +31°C° 0 mm 2 mps 758 mmHg 48%
    10:00 +34°C° 0 mm 2 mps 758 mmHg 39%
    11:00 +35°C° 0 mm 2 mps 758 mmHg 39%
    12:00 +35°C° 0 mm 3 mps 757 mmHg 39%
    13:00 +36°C° 0 mm 3 mps 757 mmHg 38%
    14:00 +35°C° 0 mm 3 mps 756 mmHg 41%
    15:00 +34°C° 0 mm 3 mps 756 mmHg 44%
    16:00 +33°C° 0 mm 3 mps 755 mmHg 46%
    17:00 +30°C° 0 mm 3 mps 756 mmHg 56%
    18:00 +28°C° 0 mm 3 mps 756 mmHg 66%
    19:00 +25°C° 0 mm 3 mps 757 mmHg 77%
    20:00 +24°C° 0 mm 3 mps 757 mmHg 81%
    21:00 +23°C° 0 mm 2 mps 758 mmHg 85%
    22:00 +21°C° 0 mm 2 mps 758 mmHg 90%
    23:00 +21°C° 0 mm 2 mps 758 mmHg 90%
    Show more